TimeEDT,TemperatureF,Dew PointF,Humidity,Sea Level PressureIn,VisibilityMPH,Wind Direction,Wind SpeedMPH,Gust SpeedMPH,PrecipitationIn,Events,Conditions,WindDirDegrees,DateUTC
12:54 AM,57.9,57.0,97,30.04,10.0,West,3.5,-,N/A,,Overcast,270,2013-08-30 04:54:00
1:14 AM,57.9,57.0,97,30.04,10.0,Calm,Calm,-,N/A,,Overcast,0,2013-08-30 05:14:00
1:54 AM,57.9,57.0,97,30.04,9.0,WSW,5.8,-,N/A,,Overcast,250,2013-08-30 05:54:00
2:20 AM,57.0,57.0,100,30.03,1.8,West,8.1,-,N/A,,Overcast,280,2013-08-30 06:20:00
2:54 AM,57.0,57.0,100,30.02,1.0,West,5.8,-,N/A,,Mist,270,2013-08-30 06:54:00
3:03 AM,57.0,57.0,100,30.02,0.5,WSW,4.6,-,N/A,Fog,Fog,250,2013-08-30 07:03:00
3:38 AM,57.0,57.0,100,30.00,1.5,WSW,6.9,-,N/A,,Overcast,250,2013-08-30 07:38:00
3:54 AM,57.0,57.0,100,30.00,1.8,WSW,6.9,-,N/A,,Overcast,250,2013-08-30 07:54:00
4:41 AM,57.0,57.0,100,30.00,2.0,West,4.6,-,N/A,,Overcast,260,2013-08-30 08:41:00
4:54 AM,57.0,57.0,100,30.00,2.5,West,4.6,-,N/A,,Overcast,270,2013-08-30 08:54:00
5:08 AM,57.0,57.0,100,29.99,4.0,WSW,9.2,-,N/A,,Overcast,250,2013-08-30 09:08:00
5:54 AM,57.9,57.9,100,30.01,3.0,West,6.9,-,N/A,,Overcast,270,2013-08-30 09:54:00
6:07 AM,59.0,57.9,96,30.00,1.8,West,8.1,-,N/A,,Overcast,260,2013-08-30 10:07:00
6:26 AM,59.0,57.9,96,30.00,0.5,West,10.4,-,N/A,Fog,Fog,260,2013-08-30 10:26:00
6:54 AM,59.0,59.0,100,30.00,0.5,WSW,9.2,-,N/A,,Overcast,250,2013-08-30 10:54:00
7:24 AM,60.1,59.0,96,29.99,2.0,WSW,12.7,-,N/A,,Overcast,250,2013-08-30 11:24:00
7:43 AM,61.0,60.1,97,29.99,8.0,West,10.4,-,N/A,,Overcast,260,2013-08-30 11:43:00
7:54 AM,61.0,60.1,97,30.00,9.0,WSW,11.5,-,N/A,,Overcast,250,2013-08-30 11:54:00
8:25 AM,62.1,60.1,93,30.00,4.0,WSW,12.7,-,N/A,,Overcast,250,2013-08-30 12:25:00
8:36 AM,62.1,61.0,96,29.99,2.0,WSW,11.5,-,N/A,,Overcast,250,2013-08-30 12:36:00
8:54 AM,63.0,61.0,93,29.99,2.0,West,10.4,-,N/A,,Overcast,270,2013-08-30 12:54:00
9:54 AM,64.0,62.1,93,29.99,2.0,West,9.2,-,N/A,,Overcast,260,2013-08-30 13:54:00
10:33 AM,66.0,63.0,90,29.98,2.0,West,10.4,-,N/A,,Overcast,260,2013-08-30 14:33:00
10:54 AM,66.0,63.0,90,29.98,2.0,West,9.2,-,N/A,,Overcast,270,2013-08-30 14:54:00
11:12 AM,68.0,63.0,84,29.98,10.0,WSW,8.1,-,N/A,,Overcast,250,2013-08-30 15:12:00
11:31 AM,69.1,63.0,81,29.98,10.0,West,10.4,-,N/A,,Overcast,260,2013-08-30 15:31:00
11:54 AM,71.1,63.0,75,29.97,10.0,WSW,11.5,-,N/A,,Overcast,250,2013-08-30 15:54:00
12:54 PM,72.0,63.0,73,29.94,10.0,NW,9.2,-,N/A,,Mostly Cloudy,310,2013-08-30 16:54:00
1:23 PM,73.0,63.0,71,29.94,10.0,NW,9.2,-,N/A,,Scattered Clouds,310,2013-08-30 17:23:00
1:54 PM,75.0,63.0,66,29.92,10.0,WNW,10.4,-,N/A,,Partly Cloudy,300,2013-08-30 17:54:00
2:54 PM,77.0,63.0,62,29.90,10.0,WSW,10.4,-,N/A,,Clear,250,2013-08-30 18:54:00
3:54 PM,78.1,63.0,60,29.89,10.0,West,11.5,-,N/A,,Clear,270,2013-08-30 19:54:00
4:54 PM,78.1,63.0,60,29.89,10.0,West,11.5,-,N/A,,Clear,270,2013-08-30 20:54:00
5:54 PM,77.0,64.9,66,29.88,10.0,WSW,9.2,-,N/A,,Clear,240,2013-08-30 21:54:00
6:54 PM,73.0,66.0,79,29.88,10.0,SW,6.9,-,N/A,,Clear,230,2013-08-30 22:54:00
7:54 PM,70.0,66.0,87,29.88,10.0,SW,8.1,-,N/A,,Clear,230,2013-08-30 23:54:00
8:54 PM,70.0,66.0,87,29.88,10.0,SW,11.5,-,N/A,,Clear,230,2013-08-31 00:54:00
9:54 PM,69.1,66.9,93,29.88,10.0,WSW,9.2,-,N/A,,Clear,240,2013-08-31 01:54:00
10:54 PM,69.1,66.9,93,29.87,10.0,WSW,9.2,-,N/A,,Clear,240,2013-08-31 02:54:00
11:54 PM,70.0,66.0,87,29.86,10.0,WSW,10.4,-,N/A,,Clear,240,2013-08-31 03:54:00